Weather History for Savoonga, AK

Change the Weather History Date:

Monday, December 31, 2012

  Actual Average Record
Temperature  
Mean Temperature 11 °F -  
Max Temperature 14 °F 9 °F 35 °F (2003)
Min Temperature 8 °F 1 °F -25 °F (2011)
Degree Days  
Heating Degree Days 54    
Moisture  
Dew Point 7 °F    
Average Humidity 85    
Maximum Humidity 92    
Minimum Humidity 73    
Precipitation  
Precipitation 0.00 in - - ()
Sea Level Pressure  
Sea Level Pressure 29.46 in    
Wind  
Wind Speed 15 mph (NNE)    
Max Wind Speed 25 mph    
Max Gust Speed 36 mph    
Visibility 1 miles    
Events      
Averages and records for this station are not official NWS values.
T = Trace of Precipitation, MM = Missing Value Source: NWS Daily Summary

Daily Weather History Graph

Daily Weather History Graph

Search for Another Location

Airport:

Trip Planner

Search our weather history database for the weather conditions in past years. The results will help you decide how hot, cold, wet, or windy it might be!

Date:

Astronomy

Dec. 31, 2012 Rise Set
Actual Time 12:06 PM AKST 4:44 PM AKST
Civil Twilight 10:53 AM AKST 5:57 PM AKST
Nautical Twilight 9:47 AM AKST 7:03 PM AKST
Astronomical Twilight 8:48 AM AKST 8:02 PM AKST
Moon 10:08 PM AKST (12/31) 12:23 PM AKST (12/31)
Length of Visible Light 7h 03m
Length of Day
4h 37m
Waning Gibbous, 89% of the Moon is Illuminated
Dec 31
Waning Gibbous
Jan 4
Last Quarter
Jan 11
New
Jan 18
First Quarter
Jan 26
Full

Hourly Weather History & Observations

Time (AKST) Temp. Windchill Dew Point Humidity Pressure Visibility Wind Dir Wind Speed Gust Speed Precip Events Conditions
12:16 AM 10.4 °F -8.2 °F 6.8 °F 85% 29.32 in 0.8 mi NNE 19.6 mph 32.2 mph N/A   Overcast
12:36 AM 10.4 °F -7.7 °F 8.6 °F 92% 29.33 in 1.0 mi NNE 18.4 mph 29.9 mph N/A   Overcast
12:56 AM 10.4 °F -7.2 °F 6.8 °F 85% 29.34 in 1.2 mi NNE 17.3 mph 24.2 mph N/A   Overcast
1:16 AM 10.4 °F -6.0 °F 6.8 °F 85% 29.34 in 1.5 mi NNE 15.0 mph 25.3 mph N/A   Overcast
1:36 AM 10.4 °F -9.1 °F 6.8 °F 85% 29.33 in 0.8 mi NNE 21.9 mph 31.1 mph N/A   Overcast
1:56 AM 10.4 °F -7.7 °F 8.6 °F 92% 29.34 in 1.2 mi NNE 18.4 mph 28.8 mph N/A   Overcast
2:16 AM 10.4 °F -7.2 °F 8.6 °F 92% 29.34 in 1.2 mi NNE 17.3 mph 28.8 mph N/A   Overcast
2:36 AM 10.4 °F -9.1 °F 8.6 °F 92% 29.33 in 0.5 mi NNE 21.9 mph 32.2 mph N/A   Overcast
2:56 AM 10.4 °F -8.2 °F 6.8 °F 85% 29.35 in 1.5 mi NNE 19.6 mph 31.1 mph N/A   Overcast
3:16 AM 10.4 °F -9.9 °F 6.8 °F 85% 29.34 in 1.2 mi NNE 24.2 mph 32.2 mph N/A   Overcast
3:36 AM 10.4 °F -10.3 °F 5.0 °F 79% 29.34 in 1.2 mi NNE 25.3 mph 35.7 mph N/A   Overcast
3:56 AM 10.4 °F -9.9 °F 6.8 °F 85% 29.35 in 0.8 mi NNE 24.2 mph 32.2 mph N/A   Overcast
4:16 AM 10.4 °F -9.5 °F 6.8 °F 85% 29.36 in 0.8 mi NNE 23.0 mph 27.6 mph N/A   Overcast
4:36 AM 10.4 °F -8.6 °F 8.6 °F 92% 29.37 in 0.5 mi NNE 20.7 mph 34.5 mph N/A   Overcast
4:56 AM 10.4 °F -7.7 °F 6.8 °F 85% 29.39 in 0.8 mi NNE 18.4 mph 28.8 mph N/A   Overcast
5:16 AM 10.4 °F -9.1 °F 5.0 °F 79% 29.39 in 1.0 mi NNE 21.9 mph 33.4 mph N/A   Overcast
5:36 AM 10.4 °F -7.2 °F 6.8 °F 85% 29.41 in 1.8 mi NNE 17.3 mph 27.6 mph N/A   Overcast
5:56 AM 10.4 °F -8.2 °F 5.0 °F 79% 29.41 in 1.2 mi NNE 19.6 mph 25.3 mph N/A   Overcast
6:16 AM 10.4 °F -6.0 °F 5.0 °F 79% 29.41 in 1.2 mi NNE 15.0 mph 25.3 mph N/A   Overcast
6:36 AM 10.4 °F -5.4 °F 5.0 °F 79% 29.42 in 1.8 mi NE 13.8 mph 26.5 mph N/A   Overcast
6:56 AM 8.6 °F -7.7 °F 5.0 °F 85% 29.43 in 2.0 mi NNE 13.8 mph 24.2 mph N/A   Overcast
7:16 AM 8.6 °F -8.9 °F 5.0 °F 85% 29.43 in 2.5 mi NNE 16.1 mph 23.0 mph N/A   Overcast
7:36 AM 10.4 °F -5.4 °F 5.0 °F 79% 29.43 in 2.5 mi NNE 13.8 mph 23.0 mph N/A   Overcast
7:56 AM 10.4 °F -7.2 °F 5.0 °F 79% 29.43 in 3.0 mi NE 17.3 mph 23.0 mph N/A   Overcast
8:16 AM 8.6 °F -6.3 °F 5.0 °F 85% 29.45 in 4.0 mi NNE 11.5 mph - N/A   Overcast
8:36 AM 8.6 °F -9.5 °F 3.2 °F 79% 29.45 in 3.0 mi NNE 17.3 mph 24.2 mph N/A   Overcast
8:56 AM 8.6 °F -11.0 °F 3.2 °F 79% 29.45 in 2.0 mi NNE 20.7 mph 27.6 mph N/A   Overcast
9:16 AM 8.6 °F -8.9 °F 3.2 °F 79% 29.47 in 5.0 mi NNE 16.1 mph 25.3 mph N/A   Overcast
9:36 AM 8.6 °F -11.0 °F 6.8 °F 92% 29.46 in 1.0 mi NNE 20.7 mph 28.8 mph N/A   Overcast
9:56 AM 8.6 °F -8.3 °F 6.8 °F 92% 29.47 in 1.2 mi NNE 15.0 mph 19.6 mph N/A   Overcast
10:16 AM 8.6 °F -9.5 °F 5.0 °F 85% 29.47 in 1.0 mi NNE 17.3 mph 26.5 mph N/A   Overcast
10:36 AM 8.6 °F -7.0 °F 6.8 °F 92% 29.48 in 1.0 mi NE 12.7 mph 24.2 mph N/A   Overcast
10:56 AM 10.4 °F -7.2 °F 3.2 °F 73% 29.48 in 1.2 mi NNE 17.3 mph - N/A   Overcast
11:16 AM 10.4 °F -4.8 °F 5.0 °F 79% 29.48 in 1.5 mi NE 12.7 mph 20.7 mph N/A   Overcast
11:36 AM 8.6 °F -8.9 °F 5.0 °F 85% 29.49 in 1.5 mi NE 16.1 mph - N/A   Overcast
11:56 AM 8.6 °F -4.7 °F 6.8 °F 92% 29.50 in 3.0 mi NNE 9.2 mph - N/A   Overcast
12:16 PM 8.6 °F -5.5 °F 6.8 °F 92% 29.50 in 2.5 mi NE 10.4 mph 21.9 mph N/A   Overcast
12:36 PM 8.6 °F 0.1 °F 5.0 °F 85% 29.51 in 1.0 mi NNE 4.6 mph 17.3 mph N/A   Overcast
12:56 PM 8.6 °F -4.7 °F 5.0 °F 85% 29.51 in 1.8 mi NNE 9.2 mph 16.1 mph N/A   Overcast
1:16 PM 8.6 °F -4.7 °F 6.8 °F 92% 29.51 in 1.0 mi NNE 9.2 mph - N/A   Overcast
1:36 PM 8.6 °F -2.6 °F 5.0 °F 85% 29.52 in 1.2 mi NNE 6.9 mph - N/A   Overcast
1:56 PM 10.4 °F -2.4 °F 5.0 °F 79% 29.52 in 1.2 mi NNE 9.2 mph - N/A   Overcast
2:16 PM 10.4 °F -4.8 °F 5.0 °F 79% 29.51 in 1.8 mi NE 12.7 mph 21.9 mph N/A   Overcast
2:36 PM 10.4 °F -2.4 °F 5.0 °F 79% 29.51 in 1.5 mi NNE 9.2 mph - N/A   Overcast
2:56 PM 10.4 °F -5.4 °F 6.8 °F 85% 29.50 in 1.0 mi NNE 13.8 mph 18.4 mph N/A   Overcast
3:16 PM 10.4 °F -6.0 °F 5.0 °F 79% 29.51 in 2.5 mi NNE 15.0 mph 20.7 mph N/A   Overcast
3:36 PM 10.4 °F -4.8 °F 5.0 °F 79% 29.51 in 2.0 mi NE 12.7 mph 19.6 mph N/A   Overcast
4:16 PM 10.4 °F -0.4 °F 6.8 °F 85% 29.50 in 1.0 mi NNE 6.9 mph 18.4 mph N/A   Overcast
4:36 PM 10.4 °F -2.4 °F 6.8 °F 85% 29.50 in 0.8 mi NE 9.2 mph - N/A   Overcast
4:56 PM 10.4 °F -3.3 °F 6.8 °F 85% 29.50 in 1.0 mi NE 10.4 mph 17.3 mph N/A   Overcast
5:16 PM 10.4 °F -3.3 °F 6.8 °F 85% 29.51 in 0.8 mi NE 10.4 mph - N/A   Overcast
5:36 PM 10.4 °F -1.5 °F 5.0 °F 79% 29.51 in 1.0 mi NE 8.1 mph - N/A   Overcast
5:56 PM 10.4 °F -4.1 °F 6.8 °F 85% 29.52 in 1.2 mi NE 11.5 mph - N/A   Overcast
6:16 PM 10.4 °F -3.3 °F 6.8 °F 85% 29.51 in 1.2 mi NE 10.4 mph - N/A   Overcast
6:36 PM 10.4 °F -4.8 °F 6.8 °F 85% 29.51 in 1.0 mi ENE 12.7 mph - N/A   Overcast
6:56 PM 10.4 °F -4.1 °F 8.6 °F 92% 29.52 in 1.0 mi ENE 11.5 mph - N/A   Overcast
7:16 PM 10.4 °F 2.2 °F 8.6 °F 92% 29.52 in 1.0 mi NE 4.6 mph - N/A   Overcast
7:36 PM 10.4 °F 0.8 °F 8.6 °F 92% 29.52 in 0.8 mi ENE 5.8 mph - N/A   Overcast
7:56 PM 10.4 °F 2.2 °F 8.6 °F 92% 29.52 in 0.8 mi NE 4.6 mph - N/A   Overcast
8:16 PM 12.2 °F - 8.6 °F 85% 29.52 in 0.5 mi Calm Calm - N/A   Overcast
8:36 PM 12.2 °F - 8.6 °F 85% 29.52 in 0.8 mi Calm Calm - N/A   Overcast
8:56 PM 12.2 °F - 8.6 °F 85% 29.52 in 0.8 mi Calm Calm - N/A   Overcast
9:16 PM 12.2 °F - 8.6 °F 85% 29.52 in 0.8 mi Calm Calm - N/A   Overcast
9:36 PM 12.2 °F - 8.6 °F 85% 29.51 in 0.8 mi Calm Calm - N/A   Overcast
9:56 PM 12.2 °F 1.7 °F 8.6 °F 85% 29.51 in 1.0 mi NE 6.9 mph - N/A   Overcast
10:16 PM 12.2 °F 4.3 °F 8.6 °F 85% 29.52 in 1.0 mi NNE 4.6 mph - N/A   Overcast
10:36 PM 12.2 °F - 8.6 °F 85% 29.51 in 0.8 mi Calm Calm - N/A   Overcast
10:56 PM 12.2 °F - 8.6 °F 85% 29.51 in 0.8 mi Calm Calm - N/A   Overcast
11:16 PM 12.2 °F - 10.4 °F 92% 29.51 in 1.0 mi Calm Calm - N/A   Overcast
11:36 PM 14.0 °F - 10.4 °F 86% 29.51 in 2.0 mi Calm Calm - N/A   Overcast
11:56 PM 12.2 °F 6.1 °F 10.4 °F 92% 29.51 in 2.5 mi NNE 3.5 mph - N/A   Overcast